www.pogodaiklimat.ru

Погода и климат >> Архив погоды >> Россия >> Томская область >> Томск


АРХИВ ПОГОДЫ в Томске

Время (UTC), дата Ветер
(напр.,м/с)
 
Видим.   Явления Облачность Т
(С)
Тd
(С)
f
(%)
Тe
(С)
Тes
(С)
Комфортность P
(гПа)
Po
(гПа)
Тmin
(С)
Tmax
(С)
R
(мм)
R24
(мм)
S
(см)
06 9.01 Ю 2 20 км 9/0
[Cc]
-7.8 -11.4 75 -12 -11 тепло 1006.5 988.7
09 9.01 Ю 2 20 км слаб. снег 10/0
[As op]
-7.1 -9.9 80 -11 -11 тепло 1006.8 989.0
12 9.01 Ю 2 10 км слаб. снег 10/8 360 м
[Frnb As op]
-8.4 -9.7 90 -13 -13 тепло 1007.0 989.1 -6.9 0.6
15 9.01 Ю 3 20 км слаб. снег 10/9 360 м
[Frnb As op]
-8.6 -10.2 88 -14 -14 по сезону 1007.5 989.6
18 9.01 Ю 3 20 км {снег} 10/10 330 м
[Sc]
-8.5 -10.5 85 -14 -14 по сезону 1008.7 990.8
21 9.01 ЮЗ 2 20 км {ливн. осадки} 10/10 300 м
[Sc]
-10.2 -12.4 84 -15 -15 по сезону 1011.2 993.1
00 10.01 ЮЗ 2 20 км {ливн. осадки} 10/10 330 м
[Sc]
-11.9 -15.0 78 -16 -16 по сезону 1013.6 995.4 -11.9 1 76
03 10.01 ЮЗ 1 20 км слаб. снег 10/10 480 м
[Sc]
-13.5 -16.2 80 -16 -16 по сезону 1016.0 997.6 -13.5
06 10.01 З 1 20 км {снег} 8/5 300 м
[Sc Ac trans]
-14.4 -18.4 72 -17 -16 по сезону 1018.4 999.9
09 10.01 З 1 20 км 6/4 600 м
[Sc diur, vesp Ac trans]
-15.7 -19.7 71 -18 -18 по сезону 1020.2 1001.5
12 10.01 штиль 0 20 км 10/0
[Ci fib]
-18.6 -20.6 84 -19 -19 по сезону 1022.7 1003.8 -11.9 0.0
15 10.01 Ю 1 20 км 10/0
[Ci fib]
-20.8 -23.1 82 -24 -24 по сезону 1024.6 1005.5
18 10.01 штиль 0 20 км 10/0
[Ci fib]
-23.2 -25.6 81 -23 -23 по сезону 1026.6 1007.3
21 10.01 штиль 0 20 км ясно -26.1 -29.2 75 -26 -26 по сезону 1028.5 1009.0
00 11.01 штиль 0 20 км ясно -25.5 -28.6 75 -26 -26 прохладно 1029.8 1010.2 -26.3 76
03 11.01 штиль 0 20 км 5/0
[Ci fib]
-29.0 -32.5 72 -29 -29 холодно 1031.5 1011.6 -29.1
06 11.01 штиль 0 20 км 3/0
[Ci fib]
-25.7 -29.3 72 -26 -25 холодно 1031.7 1012.1
09 11.01 штиль 0 20 км 4/0
[Ac trans Ci fib]
-24.2 -27.4 75 -24 -24 прохладно 1030.8 1011.3
12 11.01 штиль 0 20 км 5/0
[Ci fib]
-24.2 -27.3 75 -24 -24 прохладно 1030.1 1010.6 -23.8
15 11.01 штиль 0 20 км слаб. снег 10/0
[As op]
-21.9 -24.7 78 -22 -22 по сезону 1027.9 1008.7
18 11.01 ЮВ 1 20 км слаб. снег 10/8 420 м
[Frnb As op]
-19.9 -22.7 78 -23 -23 по сезону 1026.1 1007.0
21 11.01 штиль 0 20 км слаб. снег 10/8 420 м
[Frnb As op]
-18.9 -21.5 80 -19 -19 по сезону 1023.7 1004.7
00 12.01 Ю 1 10 км слаб. снег 10/8 420 м
[Frnb As op]
-18.1 -20.5 81 -21 -21 по сезону 1022.5 1003.7 -24.5 2 77
03 12.01 ЮЗ 1 20 км слаб. снег 10/6 500 м
[Sc Ac trans]
-18.1 -20.7 80 -21 -21 по сезону 1023.8 1004.9
06 12.01 З 1 20 км {снег} 3/3 300 м
[Sc]
-18.3 -21.3 77 -21 -20 по сезону 1026.6 1007.6
09 12.01 З 1 20 км ясно -19.2 -22.9 72 -22 -22 по сезону 1030.4 1011.3
12 12.01 штиль 0 20 км ясно -22.9 -25.6 78 -23 -23 по сезону 1034.9 1015.5 -17.9 0.4
15 12.01 штиль 0 20 км ясно -26.1 -29.3 74 -26 -26 прохладно 1038.0 1018.3
18 12.01 штиль 0 20 км ясно -28.0 -31.5 72 -28 -28 холодно 1040.3 1020.3
21 12.01 СВ 1 20 км 6/0
[Ci fib]
-31.0 -34.9 68 -35 -35 опасность
обморожения
1041.5 1021.2
00 13.01 СВ 1 20 км 6/0
[Ci fib]
-31.4 -35.3 68 -36 -36 опасность
обморожения
1041.8 1021.5 -31.6 76
03 13.01 СВ 1 20 км 10/0
[Ac und]
-29.4 -33.1 70 -33 -33 опасность
обморожения
1041.4 1021.3
06 13.01 штиль 0 20 км 10/0
[Cc]
-22.2 -25.4 75 -22 -21 по сезону 1040.3 1020.8
09 13.01 ЮВ 1 20 км 3/0
[Ac trans]
-17.2 -20.1 78 -20 -20 по сезону 1037.6 1018.5
12 13.01 ЮВ 1 20 км 8/0
[Ac trans]
-16.7 -19.4 80 -19 -19 по сезону 1037.4 1018.4 -16.7
15 13.01 штиль 0 20 км 9/0
[Ac trans]
-18.0 -20.5 81 -18 -18 по сезону 1037.1 1017.9
18 13.01 Ю 1 20 км 9/0
[Ac trans]
-15.9 -18.0 84 -19 -19 по сезону 1035.9 1016.9
21 13.01 Ю 1 20 км 6/0
[Ac trans]
-14.7 -17.1 82 -17 -17 по сезону 1035.1 1016.3
00 14.01 Ю 1 20 км 10/0
[Ac und]
-12.7 -15.3 81 -15 -15 по сезону 1033.8 1015.1 -18.9 75
03 14.01 Ю 1 20 км 10/0
[Ac trans Ci fib]
-12.1 -14.7 81 -14 -14 по сезону 1033.2 1014.6
06 14.01 штиль 0 20 км 10/0
[Ci fib]
-10.0 -13.7 74 -10 -9 тепло 1032.2 1013.8
09 14.01 ЮВ 1 20 км 10/0
[Ci fib]
-8.4 -12.2 74 -11 -10 тепло 1030.6 1012.3
12 14.01 штиль 0 20 км 10/0
[Ci fib]
-11.2 -13.8 81 -11 -11 тепло 1029.6 1011.1 -8.0
15 14.01 Ю 1 20 км ясно -12.2 -14.9 80 -14 -14 по сезону 1027.9 1009.4
18 14.01 штиль 0 20 км ясно -13.1 -16.3 77 -13 -13 тепло 1025.6 1007.0
21 14.01 СВ 1 20 км ясно -15.5 -17.6 84 -18 -18 по сезону 1023.5 1004.8
00 15.01 СВ 1 20 км ясно -15.6 -17.9 82 -18 -18 по сезону 1020.4 1001.7 -16.3 75
03 15.01 ЮВ 2 20 км 3/0
[Ac trans]
-11.9 -15.3 76 -16 -16 по сезону 1018.4 999.9 -17.5
06 15.01 штиль 0 20 км 10/0
[Ac trans Cs]
-10.8 -15.4 69 -11 -10 тепло 1016.1 997.9
09 15.01 ЮВ 1 20 км 10/0
[Cs]
-7.4 -13.4 62 -9 -9 тепло 1013.7 995.8
12 15.01 ЮВ 1 20 км 10/0
[Cs]
-7.4 -13.4 62 -9 -9 тепло 1013.7 995.8
15 15.01 Ю 1 20 км 10/0
[Cs]
-6.1 -12.4 61 -8 -8 тепло 1013.8 995.9 -5.7
18 15.01 Ю 1 20 км 10/0
[As op]
-7.0 -11.2 72 -9 -9 тепло 1014.7 996.7
21 15.01 штиль 0 20 км слаб. снег 10/8 800 м
[Sc As op]
-8.2 -9.4 91 -9 -9 тепло 1016.2 998.2
00 16.01 штиль 0 20 км {снег} 10/10 900 м
[Sc]
-9.1 -10.1 92 -10 -10 тепло 1017.7 999.6 -9.3 0.4 74
03 16.01 ЮЗ 1 20 км слаб. снег 10/8 360 м
[Frnb As op]
-9.3 -10.6 90 -12 -12 тепло 1019.8 1001.6 -9.3

 

Местоположение метеостанции Томск (Томская область, Россия): широта 56.50 долгота 84.92 высота над уровнем моря 139 м.

В архиве по умолчанию представлена погода в Томске за последнюю неделю. Архивные данные за месяц целиком и за предыдущие месяцы, начиная с января 2011 года, Вы можете получить, выбрав интересующий диапазон дат из раскрывающегося списка и нажав кнопку "Ввод!".


*Определитесь, кто Вы:
робот инопланетянин человек

Внимание! Время в таблицах - всемирное. Для получения местного времени необходимо прибавить поправку, которая равна 7 ч.

Смотрите также архив погоды в соседних городах и на ближайших метеорологических станциях:

Погода в Тайге (Кемеровская область, Россия) (64 км)
Погода в Кожевниково (Томская область, Россия) (65 км)
Погода в Юрге (Кемеровская область, Россия) (87 км)
Погода в Болотном (Новосибирская область, Россия) (98 км)
Погода в Яе (Кемеровская область, Россия) (101 км)
Погода в Первомайском (Томская область, Россия) (101 км)
Погода в Барзасе (Кемеровская область, Россия) (122 км)
Погода в Молчаново (Томская область, Россия) (139 км)
Погода в Батурино (Томская область, Россия) (143 км)
Погода в Топках (Кемеровская область, Россия) (143 км)

Пояснения к столбцам:

Ветер - указаны скорость ветра в м/с - средняя за 10 мин, порывы в срок и между сроками (в фигурных скобках) и направление, откуда дует ветер: С - северный, СВ - северо-восточный, В - восточный, ЮВ - юго-восточный, Ю - южный, ЮЗ - юго-западный, З - западный, СЗ - северо-западный.
Видимость - горизонтальная дальность видимости в метрах или километрах. При видимости от 1 до 10 км при отсутствии осадков обычно наблюдается дымка, при ухудшении видимости до 1 км и менее - туман. В сухую погоду видимость может ухудшаться дымом, пылью или мглою.
Явления - указаны атмосферные явления, наблюдавшиеся в срок или в последний час перед сроком; фигурными скобками обозначены явления, наблюдавшиеся между сроками (за 1-3 часа до срока); квадратными скобками обозначены град или гололедные отложения с указанием их диаметра в мм.
Облачность - указаны через наклонную черту общая и нижняя облачность в баллах и высота нижней границы облаков в метрах; квадратными скобками обозначены формы облаков: Ci - перистые, Cs - перисто-слоистые, Cc - перисто-кучевые, Ac - высококучевые, As - высокослоистые, Sc - слоисто-кучевые, Ns - слоисто-дождевые, Cu - кучевые, Cb - кучево-дождевые. Подробнее классификацию облаков см. в Атласе облаков (PDF).
T - Температура воздуха - температура, измеренная на высоте 2 м над землей.
Td - Температура точки росы - температура, при понижении до которой содержащийся в воздухе водяной пар достигнет насыщения.
f - Относительная влажность воздуха - влажноcть воздуха, измеренная на высоте 2 м над землей.
Te - Эффективная температура - температура, которую ощущает одетый по сезону человек в тени. Характеристика душности погоды. При расчете учитывается влияние влажности воздуха и скорости ветра на теплоощущения человека.
Tes - Эффективная температура на солнце - температура, которую ощущает человек, с поправкой на солнечный нагрев. Характеристика знойности погоды. Зависит от высоты солнца над горизонтом, облачности и скорости ветра. Ночью, в пасмурную погоду, а также при ветре 12 м/с и более поправка равна нулю.
P - Атмосферное давление - приведенное к уровню моря атмосферное давление.
Po - Атмосферное давление - измеренное на уровне метеостанции атмосферное давление.
Tmin - Минимальная температура - минимум температуры воздуха на высоте 2 м над землей.
Tmax - Максимальная температура - максимум температуры воздуха на высоте 2 м над землей.
R - Количество осадков - Количество выпавших осадков за период времени, мм. При наведении курсора мыши на число - период времени, за который выпало указанное количество осадков.
R24 - Количество осадков - Количество выпавших осадков за 24 часа, мм.
S - Снежный покров - Высота снежного покрова, см. При наведении курсора мыши на число - состояние снежного покрова и степень покрытия местности в баллах.